Location: Gdynia
(54.5193°N, 18.5395°E)
Time: 01:59:30
(UTC+01:00)

ISS - Pass Details

Date: 30 January 2019
Orbit: 403 x 411 km, 51.6° (Epoch: 20 February)

Event Time Altitude Azimuth Distance (km) Brightness Sun altitude
Rises 17:25:32 0° 242° (WSW) 2,330 2.0 -9.5°
Reaches altitude 10° 17:27:41 10° 234° (SW) 1,473 0.3 -9.8°
Maximum altitude 17:30:47 39° 164° (SSE) 635 -2.9 -10.3°
Enters shadow 17:33:17 14° 99° (E) 1,246 -1.9 -10.6°
